Flag for Portugal Weather past 2 weeks in Lisbon, Portugal

Now
75 °F

Passing clouds.


Feels Like: 78 °F
Forecast: 63 / 78 °F
Wind: 10 mph from North

Location: Lisbon Portela Airport

Current Time: Aug 22, 2014 at 1:41:13 PM

Latest Report: Aug 22, 2014 at 1:00 PM


Visibility: N/A

Pressure: 30.07 "Hg

Humidity: 50%

Dew point: 55 °F

Location of LisbonLocation

Historic Weather in Lisbon — Graph

°F

Lisbon temperature yesterday

Maximum temperature yesterday: 79 °F (at 1:00 PM)
Minimum temperature yesterday: 63 °F (at 1:30 AM)
Average temperature yesterday: 68 °F

Past Weeks' High & Low Weather Summary

 TemperatureHumidityPressure
High90 °F (Aug 17, 5:00 PM)94% (Aug 9, 4:30 AM)30.12 "Hg (Aug 9, 4:30 AM)
Low61 °F (Aug 14, 6:00 AM)25% (Aug 17, 6:30 PM)29.83 "Hg (Aug 17, 8:00 PM)
Average71 °F67%30.02 "Hg
* Reported Aug 7 12:00 Noon — Aug 22 12:00 Noon, Lisbon, Weather by CustomWeather, © 2014

Note: Actual official high and low records may vary slightly from our data, if they occured in-between our weather recording intervals... More about our weather records

Advertising

Lisbon weather history for previous 24 hours

 ConditionsComfort  
Time TempWeatherWind HumidityBarometerVisibility
12:00 PM
Aug 22
77 °FPassing clouds.10 mph47%30.07 "HgN/A
11:30 AM73 °FPassing clouds.9 mph53%30.07 "HgN/A
11:00 AM73 °FPassing clouds.8 mph57%30.07 "HgN/A
10:30 AM72 °FPassing clouds.7 mph61%30.07 "HgN/A
10:00 AM68 °FPassing clouds.8 mph69%30.07 "HgN/A
9:30 AM68 °FPassing clouds.10 mph69%30.07 "HgN/A
9:00 AM66 °FPassing clouds.7 mph78%30.04 "HgN/A
8:30 AM64 °FPassing clouds.6 mph88%30.04 "HgN/A
8:00 AM64 °FPassing clouds.5 mph83%30.04 "HgN/A
7:30 AM64 °FPassing clouds.3 mph88%30.04 "HgN/A
7:00 AM63 °FPassing clouds.5 mph88%30.01 "HgN/A
6:30 AM63 °FPassing clouds.5 mph88%30.01 "HgN/A
6:00 AM63 °FPassing clouds.3 mph88%30.01 "HgN/A
5:30 AM63 °FPassing clouds.5 mph88%30.01 "HgN/A
5:00 AM63 °FPassing clouds.3 mph88%30.01 "HgN/A
4:30 AM63 °FPassing clouds.8 mph88%30.01 "HgN/A
4:00 AM63 °FPassing clouds.7 mph88%30.01 "HgN/A
3:00 AM63 °FPassing clouds.10 mph88%30.01 "HgN/A
2:30 AM63 °FPassing clouds.13 mph88%30.01 "HgN/A
2:00 AM63 °FPassing clouds.12 mph88%30.04 "HgN/A
1:30 AM63 °FPassing clouds.9 mph88%30.04 "HgN/A
1:00 AM63 °FPassing clouds.8 mph88%30.04 "HgN/A
12:30 AM63 °FPassing clouds.10 mph88%30.04 "HgN/A
12:00 AM63 °FPassing clouds.9 mph88%30.04 "HgN/A
11:30 PM
Aug 21
64 °FPassing clouds.6 mph83%30.04 "HgN/A
11:00 PM64 °FPassing clouds.9 mph83%30.04 "HgN/A
10:30 PM64 °FPassing clouds.5 mph83%30.04 "HgN/A
10:00 PM64 °FPassing clouds.8 mph83%30.04 "HgN/A
9:30 PM64 °FPassing clouds.9 mph78%30.04 "HgN/A
9:00 PM66 °FPassing clouds.14 mph73%30.04 "HgN/A
8:30 PM66 °FPassing clouds.13 mph73%30.01 "HgN/A
8:00 PM68 °FPassing clouds.13 mph69%30.01 "HgN/A
7:30 PM70 °FPassing clouds.9 mph60%30.01 "HgN/A
7:00 PM72 °FPassing clouds.8 mph53%30.01 "HgN/A
6:30 PM72 °FPassing clouds.9 mph53%30.01 "HgN/A
6:00 PM73 °FPassing clouds.10 mph50%30.01 "HgN/A
5:30 PM75 °FPassing clouds.10 mph47%30.01 "HgN/A
5:00 PM75 °FPassing clouds.14 mph47%30.01 "HgN/A
4:30 PM75 °FPassing clouds.12 mph47%30.01 "HgN/A
4:00 PM77 °FPassing clouds.13 mph44%30.01 "HgN/A
3:30 PM77 °FPassing clouds.13 mph44%30.01 "HgN/A
3:00 PM77 °FPassing clouds.10 mph44%30.04 "HgN/A
2:30 PM77 °FPassing clouds.9 mph47%30.04 "HgN/A
2:00 PM79 °FPassing clouds.9 mph45%30.04 "HgN/A
1:30 PM79 °FPassing clouds.9 mph42%30.04 "HgN/A
1:00 PM79 °FPassing clouds.8 mph45%30.04 "HgN/A
Weather by CustomWeather, © 2014

See weather overviewHow to use our weather pages